Tracking 18795 objects as of 22-August-2017
HD Live streaming from Space Station
objects crossing your sky now

GLOBALSTAR M044

Track GLOBALSTAR M044 now!
10-day predictions
GLOBALSTAR M044 is classified as:


NORAD ID: 25678
Int'l Code: 1999-019C
Perigee: 1,727.9 km
Apogee: 1,736.7 km
Inclination: 52.0 °
Period: 121.0 minutes
Semi major axis: 8103 km
RCS: 2.4818 m2 (large)
Launch date: April 15, 1999
Source: Globalstar (GLOB)
Launch site: TYURATAM MISSILE AND SPACE COMPLEX (TTMTR)
Your satellite tracking list
Your tracking list is empty





NASA's NSSDC Master Catalog

Two Line Element Set (TLE):
1 25678U 99019C   17234.22722646 -.00000096 +00000-0 -17457-3 0  9998
2 25678 051.9980 048.1847 0005427 295.8892 113.2178 11.90180377831243
Source of the keplerian elements: AFSPC